Flag for Finland Weather past 2 weeks in Ivalo, Finland

Now
12 °F

Clear.


Feels Like: 4 °F
Forecast: 5 / 14 °F
Wind: 5 mph from West

Location: Ivalo

Current Time: Dec 19, 2014 at 12:39:25 AM

Latest Report: Dec 18, 2014 at 11:50 PM


Visibility: 10 mi

Pressure: 29.24 "Hg

Humidity: 85%

Dew point: 9 °F

Location of IvaloLocation

Historic Weather in Ivalo — Graph

°F

Ivalo temperature yesterday

Maximum temperature yesterday: 16 °F (at 12:20 AM)
Minimum temperature yesterday: 0 °F (at 7:50 AM)
Average temperature yesterday: 7 °F

Past Weeks' High & Low Weather Summary

 TemperatureHumidityPressure
High36 °F (Dec 5, 10:20 PM)100% (Dec 4, 2:20 AM)29.89 "Hg (Dec 4, 2:20 AM)
Low0 °F (Dec 18, 7:50 AM)74% (Dec 14, 5:00 PM)29.03 "Hg (Dec 11, 6:50 AM)
Average27 °F89%29.31 "Hg
* Reported Dec 3 11:50 PM — Dec 18 11:20 PM, Ivalo, Weather by CustomWeather, © 2014

Note: Actual official high and low records may vary slightly from our data, if they occured in-between our weather recording intervals... More about our weather records

Advertising

Ivalo weather history for previous 24 hours

 ConditionsComfort  
Time TempWeatherWind HumidityBarometerVisibility
11:20 PM
Dec 18
12 °FClear.5 mph85%29.24 "Hg10 mi
10:50 PM10 °FClear.3 mph92%29.27 "Hg10 mi
10:20 PM10 °FClear.3 mph92%29.27 "Hg10 mi
9:50 PM10 °FClear.6 mph92%29.27 "Hg10 mi
9:20 PM10 °FPartly cloudy.2 mph92%29.27 "HgN/A
8:50 PM10 °FMostly cloudy.1 mph92%29.27 "HgN/A
8:20 PM10 °FMostly cloudy.3 mph92%29.27 "HgN/A
7:50 PM12 °FMostly cloudy.3 mph85%29.27 "HgN/A
7:20 PM10 °FOvercast.1 mph92%29.27 "HgN/A
6:50 PM12 °FMostly cloudy.2 mph92%29.27 "HgN/A
6:20 PM12 °FLight snow. Mostly cloudy.5 mph85%29.27 "HgN/A
5:50 PM12 °FLight snow. Low clouds.2 mph92%29.27 "HgN/A
5:20 PM12 °FLight snow. Low clouds.2 mph92%29.27 "HgN/A
4:50 PM12 °FSnow flurries. Low clouds.2 mph85%29.27 "HgN/A
4:20 PM10 °FSnow flurries. Low clouds.2 mph92%29.27 "HgN/A
3:50 PM10 °FSnow flurries. Mostly cloudy.2 mph92%29.27 "HgN/A
3:20 PM10 °FSnow flurries. Low clouds.3 mph85%29.30 "HgN/A
2:50 PM9 °FLow clouds.5 mph92%29.30 "HgN/A
2:20 PM9 °FLow clouds.3 mph92%29.30 "HgN/A
1:50 PM7 °FOvercast.2 mph92%29.30 "HgN/A
1:20 PM5 °FOvercast.2 mph92%29.30 "HgN/A
12:50 PM5 °FPartly sunny.2 mph85%29.30 "HgN/A
12:20 PM5 °FScattered clouds.5 mph85%29.30 "HgN/A
11:50 AM5 °FPartly sunny.3 mph92%29.30 "HgN/A
11:20 AM3 °FPartly sunny.5 mph92%29.30 "HgN/A
10:50 AM3 °FPartly sunny.3 mph85%29.30 "HgN/A
10:20 AM3 °FPartly sunny.6 mph85%29.30 "HgN/A
9:50 AM1 °FPartly sunny.6 mph85%29.30 "Hg5 mi
9:20 AM0 °FPartly sunny.3 mph92%29.30 "HgN/A
8:50 AM0 °FSnow flurries. Passing clouds.3 mph84%29.30 "HgN/A
8:20 AM0 °FSunny.3 mph84%29.30 "Hg10 mi
7:50 AM0 °FSunny.3 mph92%29.30 "Hg10 mi
7:20 AM3 °FSunny.3 mph85%29.30 "Hg10 mi
6:50 AM5 °FPassing clouds.2 mph85%29.30 "HgN/A
6:20 AM5 °FPartly sunny.1 mph92%29.30 "HgN/A
5:20 AM3 °FPassing clouds.3 mph92%29.30 "HgN/A
4:50 AM9 °FPassing clouds.1 mph85%29.30 "HgN/A
4:20 AM7 °FOvercast.3 mph85%29.30 "HgN/A
3:50 AM5 °FPassing clouds.3 mph85%29.33 "HgN/A
3:20 AM5 °FClear.2 mph92%29.30 "Hg10 mi
2:50 AM7 °FPassing clouds.6 mph92%29.30 "HgN/A
2:20 AM7 °FPassing clouds.No wind92%29.33 "HgN/A
1:50 AM7 °FPassing clouds.3 mph92%29.30 "HgN/A
1:20 AM9 °FClear.1 mph100%29.33 "Hg10 mi
12:50 AM14 °FSunny.No wind92%29.33 "Hg10 mi
12:20 AM16 °FSunny.2 mph86%29.33 "Hg10 mi
Weather by CustomWeather, © 2014

See weather overviewHow to use our weather pages